Weather Roundup
Issued by NWS

Home | Current Version | Previous Version | Graphics & Text | Print | Product List | Glossary Off
Versions: 1 2 3 4 5 6 7 8 9 10 11 12 13 14 15 16 17 18 19 20 21 22 23 24 25 26 27 28 29 30 31 32 33 34 35 36 37 38 39 40 41 42 43 44 45 46 47 48 49 50

000
NZUS93 KARX 281610
HRRWXR

CURRENT HOURLY OBSERVATIONS ACROSS
MUCH OF THE UPPER MISSISSIPPI VALLEY
NATIONAL WEATHER SERVICE LA CROSSE WI
1100 AM CDT SUN MAY 28 2017


...SOUTHEAST MINNESOTA...


CITY           SKY/WX    TMP DP  RH WIND       PRES   REMARKS
ROCHESTER      SUNNY     66  45  46 NW22G30   29.78F
ROCHESTER/MAYO FAIR      65  44  46 W26       29.76F
WINONA         SUNNY     70  50  49 NW12G18   29.74S
AUSTIN         SUNNY     64  45  48 W17G25    29.80S
ALBERT LEA     SUNNY     68  46  45 W9        29.80F
DODGE CENTER   SUNNY     64  45  48 W15G26    29.78F
PRESTON        SUNNY     66  45  46 W18       29.78F
OWATONNA       SUNNY     66  45  45 NW21G28   29.79S
FARIBAULT      SUNNY     66  46  48 W16G28    29.78S
$$

...ELSEWHERE IN MINNESOTA...


CITY           SKY/WX    TMP DP  RH WIND       PRES   REMARKS
MINNEAPOLIS    MOSUNNY   65  46  50 NW14      29.75S
INTNL FALLS    LGT RAIN  54  49  83 SW3       29.65R
DULUTH         CLOUDY    60  53  77 W6        29.65F
RED WING       SUNNY     68  41  37 W18G24    29.72F
REDWOOD FALLS  PTSUNNY   67  42  40 NW16G23   29.81S
MANKATO        SUNNY     66  45  46 NW16      29.80S
WORTHINGTON    SUNNY     67  44  43 NW12G20   29.86S
FAIRMONT       SUNNY     67  44  43 NW14      29.83S
$$

...SOUTHWEST WISCONSIN...


CITY           SKY/WX    TMP DP  RH WIND       PRES   REMARKS
LA CROSSE      SUNNY     72  55  55 W12       29.72F
PRAIRIE DU CHI SUNNY     72  50  46 SW10G16   29.76S
BOSCOBEL       SUNNY     71  53  52 SW6       29.76F
LONE ROCK      SUNNY     70  52  52 SW8       29.76F
PLATTEVILLE    SUNNY     68  53  58 SW6       29.79F
FORT MC COY    MOSUNNY   70  52  52 SW7       29.73F
CAMP DOUGLAS   SUNNY     69  51  52 SE7       29.73F
MAUSTON-NEW LI SUNNY     68  51  54 SE6       29.73F
VIROQUA        FAIR      69  50  50 SW16      29.76F
WIS DELLS      SUNNY     66  51  57 CALM      29.75F
$$

...ELSEWHERE IN WISCONSIN...


CITY           SKY/WX    TMP DP  RH WIND       PRES   REMARKS
MILWAUKEE      LGT RAIN  59  58  96 N8        29.75F FOG
MADISON        PTSUNNY   64  55  72 CALM      29.77S
GREEN BAY      CLOUDY    58  58 100 SW3       29.74F
EAU CLAIRE     MOSUNNY   68  50  52 W14G21    29.69F
BLACK RVR FLS  FAIR      70  51  52 SW9G17    29.71F
MEDFORD        SUNNY     65  51  61 S12       29.70F
WAUSAU         SUNNY     66  52  60 S9        29.70F
WIS RAPIDS     SUNNY     68  53  58 VRB6      29.74F
MARSHFIELD     SUNNY     66  52  60 SW13      29.71F
RICE LAKE      MOSUNNY   64  46  52 W14       29.71S
$$

...NORTHEAST IOWA...


CITY           SKY/WX    TMP DP  RH WIND       PRES   REMARKS
WATERLOO       SUNNY     70  54  56 NW13G22   29.80S
DUBUQUE        SUNNY     69  53  56 NW6       29.79F
DECORAH        SUNNY     68  52  56 W8G18     29.77S
MASON CITY     SUNNY     70  44  39 NW15      29.83F
CHARLES CITY   SUNNY     70  45  40 NW15G22   29.81S
OELWEIN        SUNNY     70  55  60 W15G24    29.80S
$$

...ELSEWHERE IN IOWA...


CITY           SKY/WX    TMP DP  RH WIND       PRES   REMARKS
DES MOINES     SUNNY     71  55  56 NW14      29.86R
IOWA CITY      SUNNY     72  55  55 NW13      29.82F
FORT DODGE     SUNNY     70  52  52 N6        29.86S
MARSHALLTOWN   SUNNY     68  56  65 W12       29.83S
CEDAR RAPIDS   SUNNY     70  58  65 NW17      29.80F
$$

...NORTHERN ILLINOIS...


CITY           SKY/WX    TMP DP  RH WIND       PRES   REMARKS
CHICAGO-OHARE  PTSUNNY   72  60  66 N14       29.74R
CHICAGO-MIDWAY PTSUNNY   74  63  68 W10       29.73S
MOLINE         SUNNY     73  54  51 N10       29.80R
ROCKFORD       CLOUDY    65  59  81 N8        29.78S
PEORIA         MOSUNNY   71  60  68 N10       29.78S
$$

NOTE: "FAIR" INDICATES FEW OR NO CLOUDS BELOW 12,000 FEET WITH NO
SIGNIFICANT WEATHER AND/OR OBSTRUCTIONS TO VISIBILITY. WIND
SPEEDS ARE IN MILES-PER-HOUR.




USA.gov is the U.S. government's official web portal to all federal, state and local government web resources and services.